Montreal/Mirabel, Ontario

1:36 PM EST on December 07, 2016 (GMT -0500)
Montreal International (Mirabel)

Weather History for CYMX - June, 2013

Change the Weather History Date:

Sunday, June 9, 2013

  Actual Average Record
Temperature  
Mean Temperature 66 °F -  
Max Temperature 75 °F 70 °F 84 °F (1997)
Min Temperature 57 °F 50 °F 42 °F (1998)
Cooling Degree Days 1    
Growing Degree Days 16 (Base 50)    
Moisture  
Dew Point 55 °F    
Average Humidity 76    
Maximum Humidity 100    
Minimum Humidity 41    
Precipitation  
Precipitation 0.00 in - - ()
Sea Level Pressure  
Sea Level Pressure 30.08 in    
Wind  
Wind Speed 5 mph ()    
Max Wind Speed 13 mph    
Max Gust Speed 21 mph    
Visibility 10.8 miles    
Events      
Averages and records for this station are not official NWS values.
T = Trace of Precipitation, MM = Missing Value Source: Averaged Metar Reports

Daily Weather History Graph

Daily Weather History Graph

Search for Another Location

Airport or City:

Trip Planner

Search our weather history database for the weather conditions in past years. The results will help you decide how hot, cold, wet, or windy it might be!

Date:

Astronomy

Jun. 09, 2013 Rise Set
Actual Time 5:06 AM EDT 8:44 PM EDT
Civil Twilight 4:29 AM EDT 9:22 PM EDT
Nautical Twilight 3:38 AM EDT 10:12 PM EDT
Astronomical Twilight 2:31 AM EDT 11:20 PM EDT
Moon 6:04 AM EDT (6/9) 9:25 PM EDT (6/9)
Length of Visible Light 16h 53m
Length of Day
15h 37m
New Moon, 1% of the Moon is Illuminated
Jun 9
New Moon
Jun 16
First Quarter
Jun 23
Full
Jun 30
Last Quarter
Jul 8
New

Hourly Weather History & Observations

Time (EDT) Temp. Dew Point Humidity Pressure Visibility Wind Dir Wind Speed Gust Speed Precip Events Conditions
12:00 AM 59.0 °F 57.2 °F 94% 30.02 in 15.0 mi SW 4.6 mph - N/A   Overcast
1:00 AM 57.2 °F 57.2 °F 100% 30.01 in 15.0 mi SW 4.6 mph - N/A   Overcast
2:00 AM 57.2 °F 57.2 °F 100% 30.02 in 15.0 mi SW 4.6 mph - N/A   Overcast
3:00 AM 57.2 °F 57.2 °F 100% 30.03 in 10.0 mi WSW 4.6 mph - N/A   Overcast
4:00 AM 57.2 °F 57.2 °F 100% 30.02 in 10.0 mi West 3.5 mph - N/A   Overcast
4:18 AM 57.2 °F 57.2 °F 100% 30.03 in 10.0 mi SW 3.5 mph - N/A   Overcast
5:00 AM 57.2 °F 57.2 °F 100% 30.04 in 10.0 mi SW 4.6 mph - N/A   Overcast
5:29 AM 57.2 °F 57.2 °F 100% 30.04 in 10.0 mi WSW 3.5 mph - N/A   Overcast
6:00 AM 57.2 °F 57.2 °F 100% 30.04 in 8.0 mi WSW 4.6 mph - N/A   Mostly Cloudy
7:00 AM 59.0 °F 57.2 °F 94% 30.06 in 8.0 mi WSW 4.6 mph - N/A   Overcast
8:00 AM 59.0 °F 57.2 °F 94% 30.06 in 8.0 mi West 8.1 mph - N/A   Mostly Cloudy
9:00 AM 62.6 °F 59.0 °F 88% 30.08 in 25.0 mi WSW 8.1 mph - N/A   Mostly Cloudy
10:00 AM 64.4 °F 59.0 °F 83% 30.08 in 25.0 mi WSW 10.4 mph 19.6 mph N/A   Mostly Cloudy
11:00 AM 66.2 °F 59.0 °F 78% 30.08 in 25.0 mi WSW 9.2 mph - N/A   Mostly Cloudy
12:00 PM 69.8 °F 55.4 °F 60% 30.09 in 25.0 mi WNW 9.2 mph 18.4 mph N/A   Mostly Cloudy
1:00 PM 71.6 °F 51.8 °F 50% 30.08 in 25.0 mi NW 12.7 mph 20.7 mph N/A   Mostly Cloudy
2:00 PM 73.4 °F 53.6 °F 50% 30.09 in 45.0 mi NW 11.5 mph 19.6 mph N/A   Mostly Cloudy
3:00 PM 73.4 °F 53.6 °F 50% 30.09 in 45.0 mi NW 8.1 mph 17.3 mph N/A   Mostly Cloudy
4:00 PM 75.2 °F 50.0 °F 41% 30.09 in 45.0 mi NW 10.4 mph 17.3 mph N/A   Scattered Clouds
5:00 PM 75.2 °F 50.0 °F 41% 30.10 in 45.0 mi NW 10.4 mph 20.7 mph N/A   Scattered Clouds
6:00 PM 75.2 °F 50.0 °F 41% 30.10 in 45.0 mi NNW 5.8 mph - N/A   Mostly Cloudy
7:00 PM 73.4 °F 50.0 °F 44% 30.12 in 45.0 mi North 5.8 mph - N/A   Mostly Cloudy
8:00 PM 69.8 °F 50.0 °F 49% 30.13 in 45.0 mi ENE 3.5 mph - N/A   Mostly Cloudy
9:00 PM 64.4 °F 51.8 °F 64% 30.15 in 25.0 mi ESE 2.3 mph - N/A   Scattered Clouds
10:00 PM 59.0 °F 51.8 °F 77% 30.17 in 25.0 mi ESE 5.8 mph - N/A   Scattered Clouds
11:00 PM 59.0 °F 51.8 °F 77% 30.19 in 25.0 mi NE 2.3 mph - N/A   Partly Cloudy